World > North America > United States > Washington

Ceres, Washington Regional Weather

Lat: 46.61N, Lon: 123.15W
Wx Zone: WAZ504Web Search

Helpful Tip: Abbreviated, 7 Day, 14 Day Forecasts. There is a weather forecast for every taste.

Feedback


°F Click to change Ceres hourly weather to Imperial units.Click to change Ceres hourly weather to Metric units. °C
Ceres Weather Map
UTC Time: 4/16/2021, 23:08
Your Time:

Ceres, WA Regional Weather

Expires:202104162300;;660152
ASUS46 KSEW 162220
RWRWA 

WASHINGTON REGIONAL WEATHER ROUNDUP
NATIONAL WEATHER SERVICE SEATTLE WA
300 PM PDT FRI APR 16 2021

NOTE:"FAIR" INDICATES FEW OR NO CLOUDS BELOW 12,000 FEET WITH NO 
SIGNIFICANT WEATHER AND/OR OBSTRUCTIONS TO VISIBILITY.


WAZ020-022-039-040-504-511-512-162300-
SOUTHWEST INTERIOR
  
CITY           SKY/WX    TMP DP  RH WIND       PRES   REMARKS
SHELTON        SUNNY     78  34  20 NE8       30.15F                  
OLYMPIA        SUNNY     78  34  20 NE10G17   30.16F                  
CHEHALIS       FAIR      77  39  25 VRB6G13   30.15F                  
KELSO          SUNNY     80  34  19 CALM      30.12F                  
VANCOUVER      SUNNY     77  31  18 SE15      30.11F                  
SCAPPOOSE, OR  SUNNY     80  30  16 E17       30.11F                  
PORTLAND, OR   SUNNY     78  29  16 E16G25    30.11F                  
$$
 

SKY/WX - Weather  TMP - Temperature  DP - Dew Point  RH - Relative Humidity
WIND - Wind Direction/Speed PRES - Barometric Pressure VSB - Visibility
WCI - Wind Chill Index E13G22 Wind - East Wind 13 mph/Gusts of 22 mph